This demonstration page uses our WeatherBlox Daily Observations layout. Learn more.

Left ArrowRight Arrow

Hourly Observations for March 22, 2020

Temp ( °F °C ) Dew Point ( °F °C ) Humidity (%) Winds ( mph kmh ) Pressure ( in mb ) Visibility ( mi km ) Precip ( " mm )
12:56 am 00:56 Partly Cloudy 35 1.7 28 -2.4 75 75 ESE 7 11 30.31 1026 10 16 0.00 0.00
1:56 am 01:56 Cloudy 35 1.8 28 -2.2 75 75 ESE 8 13 30.30 1026 10 16 0.00 0.00
2:56 am 02:56 Mostly Clear 35 1.6 28 -2.4 75 75 ESE 6 9 30.27 1025 10 16 0.00 0.00
3:56 am 03:56 Mostly Clear 35 1.4 28 -2.4 76 76 ESE 8 13 30.26 1025 10 16 0.00 0.00
4:56 am 04:56 Cloudy 37 2.6 28 -2.1 71 71 ESE 10 17 30.23 1024 10 16 0.00 0.00
5:56 am 05:56 Cloudy 37 2.8 28 -2.3 69 69 ESE 8 13 30.23 1024 10 16 0.00 0.00
6:56 am 06:56 Cloudy 37 2.6 29 -1.6 74 74 ESE 12 19 30.22 1024 10 16 0.00 0.00
7:56 am 07:56 Cloudy 37 2.5 30 -1.1 77 77 SE 14 22 30.24 1024 10 16 0.00 0.00
8:56 am 08:56 Cloudy 37 2.8 31 -0.7 78 78 ESE 12 19 30.22 1023 10 16 0.00 0.00
9:56 am 09:56 Cloudy 38 3.6 32 -0.2 76 76 SE 16 26 30.20 1023 10 16 0.00 0.00
10:11 am 10:11 Cloudy 39 4 32 0 75 75 SE 16 26 30.21 1023 10 16 0.00 0.00
10:26 am 10:26 Cloudy 39 4 32 0 75 75 SE 15 24 30.21 1023 10 16 0.00 0.00
10:56 am 10:56 Cloudy 38 3.5 33 0.7 82 82 SE 15 24 30.22 1023 10 16 0.00 0.00
11:11 am 11:11 Cloudy 37 3 34 1 87 87 SE 13 20 30.21 1023 10 16 0.00 0.00
11:19 am 11:19 Cloudy with Light Rain 37 3 34 1 87 87 SE 16 26 30.21 1023 10 16 0.00 0.00
11:32 am 11:32 Cloudy with Drizzle 37 3 34 1 87 87 ESE 15 24 30.21 1023 10 16 0.00 0.00
11:47 am 11:47 Cloudy with Drizzle 37 3 34 1 87 87 SE 14 22 30.20 1023 10 16 0.00 0.00
11:56 am 11:56 Cloudy with Drizzle 37 2.9 34 1.3 89 89 ESE 12 19 30.20 1023 10 16 0.00 0.00
12:11 pm 12:11 Cloudy with Drizzle 37 3 36 2 93 93 ESE 13 20 30.19 1022 10 16 0.00 0.00
12:56 pm 12:56 Cloudy 39 3.9 35 1.9 87 87 SE 10 17 30.17 1022 10 16 0.00 0.00
1:56 pm 13:56 Cloudy 39 4 35 1.7 85 85 ESE 10 17 30.16 1021 10 16 0.00 0.00
2:56 pm 14:56 Cloudy with Light Rain 40 4.6 36 2.3 85 85 SE 8 13 30.14 1021 10 16 0.00 0.00
3:26 pm 15:26 Cloudy with Drizzle 41 5 37 3 87 87 SSE 8 13 30.12 1020 10 16 0.00 0.00
3:56 pm 15:56 Cloudy 41 4.8 37 3 88 88 SSE 7 11 30.11 1020 10 16 0.00 0.00
4:56 pm 16:56 Cloudy 42 5.6 38 3.4 86 86 SE 7 11 30.09 1019 10 16 0.00 0.00
5:14 pm 17:14 Cloudy 43 6 37 3 81 81 ESE 7 11 30.09 1019 10 16 0.00 0.00
5:44 pm 17:44 Cloudy 43 6 37 3 81 81 ESE 7 11 30.09 1019 10 16 0.00 0.00
5:56 pm 17:56 Cloudy 42 5.6 38 3.4 86 86 E 6 9 30.09 1019 10 16 0.00 0.00
6:41 pm 18:41 Cloudy with Mist and Fog 41 5 39 4 93 93 E 7 11 30.09 1019 4 6 0.00 0.00
6:56 pm 18:56 Cloudy with Mist and Fog 42 5.3 40 4.4 94 94 E 3 6 30.09 1019 4 6 0.00 0.00
7:11 pm 19:11 Cloudy with Mist and Fog 41 5 41 5 100 100 ESE 6 9 30.09 1019 4 6 0.00 0.00
7:56 pm 19:56 Cloudy 42 5.3 40 4.3 93 93 SSE 8 13 30.11 1020 10 16 0.00 0.00
8:41 pm 20:41 Cloudy 41 5 39 4 93 93 SE 9 15 30.11 1020 10 16 0.00 0.00
8:56 pm 20:56 Cloudy with Light Rain 41 4.8 39 4.1 95 95 SE 12 19 30.11 1020 6 10 0.00 0.00
9:56 pm 21:56 Cloudy with Mist and Fog 40 4.3 38 3.6 95 95 SE 10 17 30.13 1020 5 8 0.00 0.00
10:56 pm 22:56 Cloudy with Mist and Fog 39 3.9 38 3.2 95 95 SE 9 15 30.14 1021 4 6 0.00 0.00
11:41 pm 23:41 Cloudy 39 4 37 3 93 93 SE 6 9 30.15 1021 10 16 0.00 0.00
11:56 pm 23:56 Cloudy 38 3.6 37 2.6 93 93 SE 7 11 30.15 1021 9 14 0.00 0.00

Powered by AerisWeather